TimeMST,TemperatureF,Dew PointF,Humidity,Sea Level PressureIn,VisibilityMPH,Wind Direction,Wind SpeedMPH,Gust SpeedMPH,PrecipitationIn,Events,Conditions,WindDirDegrees,DateUTC
12:53 AM,14.0,10.9,88,30.45,10.0,WSW,9.2,-,N/A,,Clear,240,2013-02-15 07:53:00
1:53 AM,12.9,10.0,88,30.46,10.0,WSW,10.4,-,N/A,,Partly Cloudy,240,2013-02-15 08:53:00
2:53 AM,14.0,10.9,88,30.46,10.0,WSW,10.4,-,N/A,,Clear,240,2013-02-15 09:53:00
3:53 AM,15.1,12.0,88,30.45,10.0,WSW,10.4,-,N/A,,Clear,250,2013-02-15 10:53:00
4:44 AM,19.4,14.0,80,30.35,10.0,WSW,10.4,-,N/A,,Mostly Cloudy,250,2013-02-15 11:44:00
4:53 AM,19.0,15.1,85,30.45,10.0,WSW,10.4,-,N/A,,Overcast,250,2013-02-15 11:53:00
5:53 AM,21.0,16.0,81,30.48,10.0,SW,8.1,-,N/A,,Overcast,230,2013-02-15 12:53:00
6:53 AM,21.9,17.1,82,30.51,10.0,SSW,11.5,-,N/A,,Overcast,210,2013-02-15 13:53:00
7:53 AM,21.0,17.1,85,30.54,10.0,SW,10.4,-,N/A,,Overcast,230,2013-02-15 14:53:00
8:53 AM,24.1,19.0,81,30.55,10.0,SW,9.2,-,N/A,,Overcast,220,2013-02-15 15:53:00
9:53 AM,26.1,18.0,71,30.55,10.0,WSW,15.0,-,N/A,,Overcast,240,2013-02-15 16:53:00
10:53 AM,28.0,18.0,66,30.55,10.0,WSW,13.8,-,N/A,,Mostly Cloudy,250,2013-02-15 17:53:00
11:20 AM,26.6,17.6,69,30.42,10.0,SW,12.7,-,N/A,,Scattered Clouds,230,2013-02-15 18:20:00
11:53 AM,28.0,18.0,66,30.56,10.0,WSW,12.7,-,N/A,,Partly Cloudy,240,2013-02-15 18:53:00
12:53 PM,30.0,19.0,64,30.53,10.0,WSW,13.8,-,N/A,,Clear,240,2013-02-15 19:53:00
1:53 PM,30.9,19.9,64,30.53,10.0,SW,15.0,-,N/A,,Clear,230,2013-02-15 20:53:00
2:53 PM,30.9,19.0,61,30.52,10.0,WSW,12.7,-,N/A,,Partly Cloudy,240,2013-02-15 21:53:00
3:53 PM,30.0,19.0,64,30.51,10.0,WSW,13.8,-,N/A,,Clear,250,2013-02-15 22:53:00
4:53 PM,28.9,18.0,64,30.50,10.0,West,12.7,-,N/A,,Clear,260,2013-02-15 23:53:00
5:53 PM,26.1,17.1,69,30.50,10.0,WSW,13.8,-,N/A,,Clear,250,2013-02-16 00:53:00
6:53 PM,24.1,16.0,71,30.51,10.0,WSW,13.8,-,N/A,,Clear,250,2013-02-16 01:53:00
7:53 PM,21.9,15.1,75,30.53,10.0,WSW,11.5,-,N/A,,Clear,240,2013-02-16 02:53:00
8:53 PM,19.9,15.1,81,30.52,10.0,WSW,13.8,-,N/A,,Clear,240,2013-02-16 03:53:00
9:53 PM,19.0,14.0,81,30.51,10.0,WSW,11.5,-,N/A,,Clear,240,2013-02-16 04:53:00
10:53 PM,19.0,14.0,81,30.50,10.0,WSW,13.8,-,N/A,,Clear,240,2013-02-16 05:53:00
11:53 PM,19.9,15.1,81,30.50,10.0,SW,15.0,-,N/A,,Clear,230,2013-02-16 06:53:00